FW9615 Weather Reports


time (UTC)temp
F
wind
direction
speed
knots
gust
knots
rain 1hr
in
rain 24hr
in
rain mn
in
humidity
%
barometer
mb
20260510130051 63 0 0.0 0.0 0.00 0.00 0.00 84 1013.5
20260510124550 60 0 0.0 0.0 0.00 0.00 0.00 90 1013.7
20260510123058 58 0 0.0 0.0 0.00 0.00 0.00 93 1013.8
20260510121552 56 0 0.0 0.0 0.00 0.00 0.00 95 1013.6
20260510120050 54 0 0.0 0.0 0.00 0.00 0.00 96 1013.7
20260510114549 53 0 0.0 0.0 0.00 0.00 0.00 96 1013.4
20260510113051 51 0 0.0 0.0 0.00 0.00 0.00 96 1013.2
20260510111606 50 0 0.0 0.0 0.00 0.00 0.00 96 1013.1
20260510110049 49 0 0.0 0.0 0.00 0.00 0.00 95 1013.0
20260510104550 48 0 0.0 0.0 0.00 0.00 0.00 95 1012.9
20260510103048 47 0 0.0 0.0 0.00 0.00 0.00 95 1012.7
20260510101552 46 0 0.0 0.0 0.00 0.00 0.00 94 1012.4
20260510100053 47 0 0.0 0.0 0.00 0.00 0.00 94 1012.0
20260510094553 47 0 0.0 0.0 0.00 0.00 0.00 94 1012.1
20260510093103 47 0 0.0 0.0 0.00 0.00 0.00 94 1012.3
20260510091549 48 0 0.0 0.0 0.00 0.00 0.00 94 1012.1
20260510084550 47 0 0.0 0.0 0.00 0.00 0.00 94 1012.0
20260510083108 47 0 0.0 0.0 0.00 0.00 0.00 94 1012.2
20260510081608 47 0 0.0 0.0 0.00 0.00 0.00 94 1011.8
20260510080054 48 0 0.0 0.0 0.00 0.00 0.00 93 1011.6
20260510074603 48 0 0.0 0.0 0.00 0.00 0.00 93 1011.4
20260510073054 48 0 0.0 0.0 0.00 0.00 0.00 93 1011.2
20260510071554 48 0 0.0 0.0 0.00 0.00 0.00 93 1011.1
20260510070053 49 0 0.0 0.0 0.00 0.00 0.00 93 1010.9
20260510064603 49 0 0.0 0.0 0.00 0.00 0.00 93 1010.9
20260510063054 49 0 0.0 0.0 0.00 0.00 0.00 92 1010.5
20260510061558 50 0 0.0 0.0 0.00 0.00 0.00 92 1010.6
20260510060052 50 0 0.0 0.0 0.00 0.00 0.00 92 1010.6
20260510054557 51 0 0.0 0.0 0.00 0.00 0.00 92 1010.7
20260510053053 51 0 0.0 0.0 0.00 0.00 0.00 92 1010.8
20260510051559 51 0 0.0 0.0 0.00 0.00 0.00 92 1010.9
20260510050100 52 0 0.0 0.0 0.00 0.00 0.00 91 1010.9
20260510044632 52 0 0.0 0.0 0.00 0.00 0.00 91 1010.9
20260510043054 53 0 0.0 0.0 0.00 0.00 0.00 90 1011.0
20260510041554 53 0 0.0 0.0 0.00 0.00 0.00 90 1011.0
20260510040055 54 0 0.0 0.0 0.00 0.00 0.00 90 1010.9
20260510034554 54 0 0.0 0.0 0.00 0.00 0.00 89 1010.9
20260510033056 55 0 0.0 0.0 0.00 0.00 0.00 88 1010.9
20260510031558 56 0 0.0 0.0 0.00 0.00 0.00 87 1010.9
20260510030056 56 0 0.0 0.0 0.00 0.00 0.00 87 1010.8
20260510024552 57 0 0.0 0.0 0.00 0.00 0.00 87 1010.8
20260510023054 57 0 0.0 0.0 0.00 0.00 0.00 86 1010.6
20260510021557 58 0 0.0 0.0 0.00 0.00 0.00 85 1010.7
20260510020054 58 0 0.0 0.0 0.00 0.00 0.00 84 1010.6
20260510014558 59 0 0.0 0.0 0.00 0.00 0.00 83 1010.5
20260510013057 59 0 0.0 0.0 0.00 0.00 0.00 82 1010.2
20260510011558 60 0 0.0 0.0 0.00 0.00 0.00 82 1010.0
20260510010123 60 0 0.0 0.0 0.00 0.00 0.00 81 1009.9
20260510004557 61 0 0.0 0.0 0.00 0.00 0.00 78 1009.7
20260510003054 62 0 0.0 0.0 0.00 0.00 0.00 77 1009.5
20260510001556 64 0 0.0 0.0 0.00 0.00 0.00 74 1009.6
20260510000054 65 0 0.0 0.0 0.00 0.00 0.00 73 1009.5
20260509234607 65 0 0.0 0.0 0.00 0.00 0.00 72 1009.4
20260509233056 66 0 0.0 0.0 0.00 0.00 0.00 71 1009.3
20260509231553 66 0 0.0 0.0 0.00 0.00 0.00 70 1009.1
20260509230054 67 0 0.0 0.0 0.00 0.00 0.00 70 1009.0
20260509224552 67 0 0.0 2.6 0.00 0.00 0.00 69 1009.0
20260509223047 68 0 0.9 5.2 0.00 0.00 0.00 67 1009.1
20260509221557 69 139 0.9 2.6 0.00 0.00 0.00 65 1009.0
20260509220057 70 111 0.9 2.6 0.00 0.00 0.00 64 1008.9
20260509214554 70 80 0.9 4.3 0.00 0.00 0.00 65 1009.1
20260509213053 71 162 0.0 0.9 0.00 0.00 0.00 63 1009.0
20260509211558 71 0 0.0 1.7 0.00 0.00 0.00 61 1009.0
20260509210054 71 185 0.0 1.7 0.00 0.00 0.00 59 1009.1
20260509204551 72 181 0.0 0.0 0.00 0.00 0.00 60 1008.9
20260509203138 72 158 0.0 0.9 0.00 0.00 0.00 58 1008.9
20260509201604 72 255 0.9 2.6 0.00 0.00 0.00 59 1009.0
20260509200059 71 248 0.9 1.7 0.00 0.00 0.00 60 1009.1
20260509194547 70 47 0.0 1.7 0.00 0.00 0.00 62 1009.3
20260509193102 69 82 0.0 2.6 0.00 0.00 0.00 61 1009.7
20260509191603 69 0 0.9 2.6 0.00 0.00 0.00 60 1009.5
20260509190052 70 134 0.0 1.7 0.00 0.00 0.00 59 1009.7
20260509184555 71 0 0.0 1.7 0.00 0.00 0.00 60 1009.9
20260509183054 69 122 0.0 1.7 0.00 0.00 0.00 62 1009.9
20260509181600 67 0 0.0 0.9 0.00 0.00 0.00 60 1010.6
20260509180058 67 0 0.0 1.7 0.00 0.00 0.00 62 1010.9
20260509174550 67 0 0.0 0.9 0.00 0.00 0.00 61 1011.0
20260509173049 66 0 0.0 0.9 0.00 0.00 0.00 63 1011.1
20260509171552 66 295 0.0 0.9 0.00 0.00 0.00 63 1011.2
20260509170057 66 0 0.0 0.0 0.00 0.00 0.00 63 1011.3
20260509164602 65 0 0.0 0.9 0.00 0.00 0.00 64 1011.2
20260509163052 64 0 0.0 1.7 0.00 0.00 0.00 64 1011.4
20260509161556 64 0 0.0 0.0 0.00 0.00 0.00 63 1011.5
20260509160057 64 0 0.0 0.0 0.00 0.00 0.00 64 1011.6
20260509154555 64 0 0.0 1.7 0.00 0.00 0.00 63 1011.6
20260509153054 65 0 0.0 1.7 0.00 0.00 0.00 61 1011.5
20260509151555 65 0 0.0 0.9 0.00 0.00 0.00 62 1011.7
20260509150049 64 0 0.0 0.0 0.00 0.00 0.00 66 1011.8
20260509144547 63 0 0.0 0.9 0.00 0.00 0.00 65 1012.1
20260509143051 63 0 0.0 0.9 0.00 0.00 0.00 64 1012.1
20260509141553 63 0 0.0 1.7 0.00 0.00 0.00 63 1012.0
20260509140052 64 205 0.0 0.0 0.00 0.00 0.00 64 1012.0
20260509134551 63 0 0.9 4.3 0.00 0.00 0.00 61 1012.0
20260509133051 62 176 0.0 1.7 0.00 0.00 0.00 62 1012.0
20260509131551 62 96 0.0 0.9 0.00 0.00 0.00 64 1012.0